Sussex, NJ

9:58 PM EDT on April 26, 2017 (GMT -0400)
Sussex

Weather History for KFWN - March, 2013

Change the Weather History Date:

Tuesday, March 26, 2013

  Actual Average Record
Temperature  
Mean Temperature 40 °F -  
Max Temperature 51 °F 50 °F 76 °F (1988)
Min Temperature 30 °F 27 °F 0 °F (1960)
Degree Days  
Heating Degree Days 25    
Moisture  
Dew Point 25 °F    
Average Humidity 57    
Maximum Humidity 82    
Minimum Humidity 35    
Precipitation  
Precipitation 0.00 in - - ()
Sea Level Pressure  
Sea Level Pressure 29.75 in    
Wind  
Wind Speed 2 mph (NW)    
Max Wind Speed 12 mph    
Max Gust Speed 21 mph    
Visibility 10 miles    
Events Rain    
Averages and records for this station are not official NWS values.
T = Trace of Precipitation, MM = Missing Value Source: NWS Daily Summary

Daily Weather History Graph

Daily Weather History Graph

Search for Another Location

Airport or City:

Trip Planner

Search our weather history database for the weather conditions in past years. The results will help you decide how hot, cold, wet, or windy it might be!

Date:

Astronomy

Mar. 26, 2013 Rise Set
Actual Time 6:51 AM EDT 7:17 PM EDT
Civil Twilight 6:23 AM EDT 7:45 PM EDT
Nautical Twilight 5:51 AM EDT 8:17 PM EDT
Astronomical Twilight 5:17 AM EDT 8:51 PM EDT
Moon 6:51 PM EDT (3/26) 6:06 AM EDT (3/26)
Length of Visible Light 13h 21m
Length of Day
12h 25m
Waxing Gibbous, 99% of the Moon is Illuminated
Mar 26
Waxing Gibbous
Mar 27
Full
Apr 3
Last Quarter
Apr 10
New
Apr 18
First Quarter

Hourly Weather History & Observations

Time (EDT) Temp. Windchill Dew Point Humidity Pressure Visibility Wind Dir Wind Speed Gust Speed Precip Events Conditions
12:53 AM 39.0 °F - 24.1 °F 55% 29.61 in 10.0 mi Calm Calm - 0.00 in   Overcast
1:53 AM 37.9 °F - 24.1 °F 57% 29.62 in 10.0 mi Calm Calm - N/A   Overcast
2:53 AM 36.0 °F - 26.1 °F 67% 29.64 in 10.0 mi Calm Calm - N/A   Overcast
3:53 AM 35.1 °F - 27.0 °F 72% 29.65 in 10.0 mi Calm Calm - N/A   Overcast
4:53 AM 33.1 °F - 27.0 °F 78% 29.66 in 10.0 mi Calm Calm - N/A   Overcast
5:53 AM 32.0 °F - 27.0 °F 82% 29.68 in 10.0 mi Calm Calm - N/A   Overcast
6:53 AM 33.1 °F - 27.0 °F 78% 29.70 in 10.0 mi Calm Calm - N/A   Overcast
7:53 AM 37.0 °F 34.5 °F 25.0 °F 62% 29.72 in 10.0 mi Variable 3.5 mph - N/A   Overcast
8:53 AM 39.0 °F 35.7 °F 26.1 °F 60% 29.73 in 10.0 mi West 4.6 mph - N/A   Overcast
9:53 AM 43.0 °F 39.5 °F 27.0 °F 53% 29.75 in 10.0 mi Variable 5.8 mph - N/A   Mostly Cloudy
10:53 AM 46.0 °F 42.5 °F 27.0 °F 47% 29.75 in 10.0 mi NNW 6.9 mph - 0.00 in Rain Light Rain
11:53 AM 48.9 °F - 26.1 °F 41% 29.75 in 10.0 mi North 11.5 mph 17.3 mph 0.00 in Rain Light Rain
12:53 PM 50.0 °F - 25.0 °F 38% 29.75 in 10.0 mi Variable 6.9 mph - 0.00 in   Mostly Cloudy
1:53 PM 50.0 °F - 23.0 °F 35% 29.74 in 10.0 mi WNW 8.1 mph 18.4 mph 0.00 in   Scattered Clouds
2:53 PM 48.0 °F - 24.1 °F 39% 29.75 in 10.0 mi Variable 4.6 mph - 0.00 in   Overcast
3:53 PM 44.1 °F 40.8 °F 27.0 °F 51% 29.76 in 10.0 mi Variable 5.8 mph 17.3 mph 0.00 in Rain Light Rain
4:53 PM 48.9 °F - 23.0 °F 36% 29.76 in 10.0 mi NW 8.1 mph 20.7 mph 0.00 in Rain Light Rain
5:53 PM 48.9 °F - 21.9 °F 35% 29.77 in 10.0 mi North 8.1 mph - 0.00 in   Scattered Clouds
6:53 PM 45.0 °F 41.8 °F 23.0 °F 42% 29.81 in 10.0 mi NNW 5.8 mph - 0.00 in   Mostly Cloudy
7:53 PM 43.0 °F - 24.1 °F 47% 29.83 in 10.0 mi Calm Calm - N/A   Scattered Clouds
8:53 PM 37.0 °F - 26.1 °F 65% 29.85 in 10.0 mi Calm Calm - N/A   Partly Cloudy
9:53 PM 32.0 °F - 25.0 °F 75% 29.87 in 10.0 mi Calm Calm - N/A   Clear
10:53 PM 30.9 °F - 24.1 °F 76% 29.88 in 10.0 mi Calm Calm - N/A   Clear
11:53 PM 32.0 °F 28.7 °F 24.1 °F 73% 29.88 in 10.0 mi West 3.5 mph - N/A   Clear